Wind_Speed
42 42 42 42 42 41 40 40 40 40 39 39 39 39 39 39 39 39 40 40 41 42 42 43 43 43 43 44 44 44 44 44 44 45 45 45 45 45 45 45 46 46 46 46 47 47 48 48 49 49 50 50 51 51 51 51 51 51 50 50 51 51 52 53 55 56 57 59 60 61 62 63 63 64 65 65 64 64 64 63 63 62 62 61 60 60
42 42 42 42 42 41 41 40 40 40 40 40 40 40 40 40 40 40 40 41 42 42 43 43 44 44 44 44 44 44 44 44 45 45 44 44 44 44 44 44 45 45 45 45 45 46 46 47 47 48 49 49 50 51 51 52 52 52 52 51 51 51 52 52 53 55 56 57 59 60 61 62 63 64 65 65 65 65 65 64 64 64 63 63 62 61
43 43 43 42 42 42 41 41 40 40 40 40 40 41 41 41 41 41 41 42 42 43 43 44 44 45 45 45 45 45 45 45 45 45 44 44 44 44 44 44 44 44 44 44 44 45 45 46 46 47 47 48 49 50 50 51 52 52 52 52 52 52 52 52 53 54 55 56 57 59 60 62 63 64 65 65 66 66 66 66 65 65 65 64 64 63
44 44 44 43 43 43 42 41 41 41 41 41 41 41 42 42 42 42 42 43 43 44 44 44 45 45 46 46 46 46 46 46 46 45 45 45 44 44 44 44 44 44 44 44 44 44 44 45 45 45 46 46 47 48 49 50 51 51 52 52 52 53 53 53 53 53 54 55 56 57 59 60 62 63 64 65 66 66 67 67 66 66 66 66 65 65
45 45 45 45 44 43 43 42 42 41 41 41 42 42 42 43 43 43 43 44 44 45 45 45 46 46 46 47 47 47 47 46 46 46 46 45 45 45 45 45 44 44 44 44 44 44 44 44 45 45 45 45 46 46 47 48 49 49 50 51 52 52 53 53 53 54 54 55 55 56 57 58 60 62 63 65 66 66 67 67 67 67 67 67 67 66
45 46 46 46 45 45 44 43 43 42 42 42 43 43 43 43 44 44 44 45 45 46 46 46 46 47 47 47 47 47 47 47 47 47 47 46 46 46 46 45 45 45 45 44 44 44 44 44 45 45 45 45 45 45 46 46 47 47 48 49 50 51 52 52 53 53 54 54 55 55 56 56 58 59 61 63 65 66 67 67 68 68 68 68 68 68
46 46 46 46 46 45 45 44 43 43 43 43 44 44 44 44 45 45 45 46 46 47 47 47 47 47 48 48 48 48 48 48 48 48 48 47 47 47 46 46 46 45 45 45 44 44 44 44 44 44 45 45 45 45 45 45 46 46 47 48 49 50 50 51 52 52 53 54 54 55 55 55 56 57 59 61 63 65 66 67 68 68 69 69 69 69
46 46 46 46 46 46 45 44 44 44 44 44 45 45 45 45 46 46 46 47 47 47 48 48 48 48 49 49 49 49 49 49 49 49 48 48 48 47 47 46 46 46 45 45 44 44 44 44 44 44 44 44 45 45 45 45 46 46 46 47 47 48 49 50 51 52 52 53 54 55 55 55 55 55 56 58 60 63 65 67 68 69 69 70 70 70
46 46 46 46 46 46 45 44 44 44 44 45 45 46 46 46 47 47 47 47 48 48 49 49 49 49 50 50 50 50 50 50 50 50 49 49 49 48 48 47 47 46 46 45 45 44 44 43 43 43 43 44 44 45 45 45 46 46 46 46 47 48 49 49 50 51 52 53 53 54 55 55 56 56 56 56 58 60 62 65 67 68 69 70 71 71
46 46 46 46 46 45 45 44 44 44 44 45 45 46 46 47 48 48 48 48 48 49 49 50 51 51 51 51 51 51 51 51 51 50 50 50 49 49 49 48 48 48 47 46 45 45 44 44 44 43 43 44 44 44 44 45 45 46 46 47 47 48 49 50 50 51 52 53 53 54 55 56 56 57 56 56 56 57 59 62 65 67 69 70 71 72
45 45 45 45 45 45 45 45 44 44 44 44 45 46 46 47 48 49 50 50 49 50 50 51 51 52 52 52 52 52 52 52 52 51 51 50 50 50 50 50 49 49 48 47 47 46 45 45 44 44 44 44 44 44 44 45 45 46 46 47 48 48 49 50 51 52 53 53 54 55 55 56 57 57 58 57 57 57 57 59 62 65 67 70 71 72
45 45 45 45 45 45 45 45 44 44 45 45 45 46 46 47 48 50 51 51 51 51 51 52 52 52 53 53 54 53 53 53 53 53 52 52 51 51 51 51 50 50 49 49 48 47 46 46 46 45 45 45 45 45 45 45 45 46 47 47 48 49 50 51 52 53 53 54 55 56 56 56 57 58 58 59 59 58 58 58 59 61 65 68 70 72
45 45 45 45 45 45 45 45 45 45 45 45 46 47 47 48 49 50 51 52 52 52 53 53 53 53 54 54 55 55 55 55 54 54 54 53 53 53 53 52 52 51 50 50 49 48 48 47 47 47 46 46 46 45 46 46 46 47 47 48 49 49 50 51 52 53 54 55 56 56 57 57 58 58 59 60 60 60 59 58 58 59 62 65 68 71
44 45 45 45 45 45 45 45 45 45 46 46 47 47 48 49 49 50 51 52 53 53 54 55 55 55 55 55 56 56 56 56 56 55 55 55 54 54 54 54 53 52 51 51 50 50 49 49 49 49 48 47 47 47 46 47 47 48 48 49 49 50 51 52 53 54 55 56 56 57 58 58 58 59 59 60 61 61 61 60 59 59 60 62 65 68
44 45 45 45 45 45 45 45 46 46 46 46 47 48 49 50 50 51 52 53 54 54 55 56 56 56 56 56 57 57 57 57 57 57 57 56 55 55 55 54 54 53 52 52 51 51 50 50 51 51 50 49 49 48 48 48 48 48 48 49 50 50 51 52 53 54 55 56 57 57 58 58 59 59 59 60 61 62 62 62 61 60 59 60 63 66
44 45 45 45 45 45 45 45 46 46 47 47 48 49 50 51 51 52 53 54 55 56 57 58 58 58 58 57 57 58 58 58 59 58 58 57 56 55 55 55 55 54 53 52 52 52 52 52 52 52 52 51 51 50 50 49 49 49 49 49 50 50 51 52 53 54 55 56 57 57 58 58 59 59 59 60 61 61 62 63 63 62 61 60 61 63
44 45 45 45 45 45 46 46 46 47 47 48 49 50 51 52 52 53 54 55 56 57 58 59 60 60 60 59 58 58 58 59 59 59 59 58 57 56 54 55 55 55 54 53 53 53 53 53 53 53 53 53 52 52 51 51 50 50 49 49 49 49 50 51 52 53 54 55 56 57 58 58 58 58 59 59 60 61 62 63 64 64 63 61 61 61
45 45 45 45 46 46 46 46 47 47 48 49 50 51 51 52 53 54 55 56 56 57 58 59 60 61 61 61 60 58 58 58 59 60 59 59 57 56 54 54 55 55 54 54 53 53 54 54 55 55 55 54 54 54 53 52 52 51 50 49 48 48 49 50 51 52 53 54 55 56 57 58 58 58 58 59 60 61 62 63 64 64 64 63 61 61
45 45 45 45 46 46 46 47 47 48 49 50 50 51 52 53 53 54 55 55 56 57 58 59 59 60 60 60 60 59 57 57 58 59 59 59 58 56 54 54 55 55 55 54 54 55 55 56 56 56 56 56 56 55 55 54 53 52 51 49 48 48 48 48 49 50 52 53 54 55 56 57 58 58 58 58 59 60 61 62 64 64 65 64 63 61
45 44 44 45 46 46 47 47 47 48 49 50 51 51 52 53 53 54 54 55 56 56 57 58 59 59 59 60 59 58 57 57 57 59 59 59 58 56 54 54 55 56 56 55 55 56 57 58 58 58 58 58 57 57 56 55 54 53 52 50 49 48 48 48 48 49 50 52 53 54 55 56 57 58 58 58 59 60 61 62 64 64 65 65 64 63
44 44 44 44 45 46 46 46 47 47 48 49 50 51 52 52 53 53 54 54 55 56 57 57 58 58 59 59 58 57 56 56 57 58 59 59 58 56 54 55 56 57 57 57 57 58 59 59 60 60 59 59 58 58 57 56 55 54 53 51 50 49 49 49 49 49 50 51 52 53 54 55 56 57 58 58 59 59 61 62 64 65 65 66 65 64
44 44 44 44 44 45 46 46 46 47 47 48 49 50 51 52 53 53 54 54 55 55 56 56 57 57 57 57 57 56 55 55 56 58 59 59 58 56 55 55 57 59 59 59 59 59 60 61 61 61 61 60 60 59 58 57 56 54 53 52 51 50 50 50 50 50 51 51 52 53 54 55 56 57 57 58 59 59 60 62 64 65 66 66 66 65
43 43 43 43 44 44 45 46 46 47 47 48 49 50 51 51 52 53 54 54 54 55 56 56 57 57 57 56 56 56 55 55 56 58 59 60 59 57 56 57 59 60 61 60 61 61 62 62 62 62 61 61 60 59 58 57 56 55 53 52 52 51 51 51 51 52 52 52 53 53 53 54 55 56 57 58 58 59 60 62 64 65 67 67 67 67
42 42 43 43 43 44 45 45 46 46 47 48 49 49 50 51 52 53 53 54 54 55 56 57 57 57 57 56 56 55 55 55 56 58 59 60 60 59 58 59 60 62 62 62 62 62 63 63 63 62 62 61 60 59 58 57 56 54 53 53 52 52 52 52 52 52 52 53 53 53 53 54 54 55 56 57 58 59 60 61 63 65 67 68 69 69
41 42 42 42 43 43 44 45 45 46 47 47 48 49 50 51 52 53 53 54 54 55 56 57 57 57 57 56 56 55 55 55 56 58 59 61 61 61 60 60 61 63 63 63 63 63 64 64 63 62 62 61 60 58 57 56 55 55 54 53 52 52 51 51 51 52 52 52 52 51 52 52 53 54 55 56 56 57 58 60 62 64 66 68 69 70
40 41 41 42 42 43 44 44 45 45 46 47 48 49 50 51 52 53 53 53 54 54 56 57 57 57 57 57 56 56 55 55 56 57 59 61 62 62 61 61 61 63 64 64 64 64 64 64 64 63 62 61 60 59 58 57 56 55 54 53 52 51 50 50 49 49 50 50 49 49 49 50 51 52 53 53 55 55 57 58 60 62 64 66 68 70
39 40 41 41 42 42 43 43 44 44 45 46 47 48 49 51 52 53 53 53 53 54 55 56 57 57 57 57 57 56 56 56 56 57 58 60 62 63 62 62 62 63 65 65 65 64 64 65 64 63 62 61 60 59 59 58 57 55 54 52 51 49 48 47 47 46 46 46 46 46 47 47 48 49 50 51 52 53 54 55 57 59 61 64 66 68
39 40 40 41 41 42 43 43 44 44 45 45 46 47 48 50 51 52 52 52 53 54 55 56 57 57 58 57 57 57 56 56 56 57 58 60 61 63 63 62 63 64 65 65 66 65 65 65 65 64 63 62 61 60 59 58 57 55 53 51 49 47 45 44 43 43 43 43 43 43 44 44 45 46 46 47 48 49 51 52 53 55 58 60 63 66
39 40 40 41 41 42 43 43 43 44 44 45 46 47 48 49 50 51 52 52 53 53 54 55 56 57 57 58 58 57 56 56 56 57 58 59 61 62 63 63 63 63 64 65 66 67 66 65 65 64 64 63 62 61 60 58 57 54 52 49 47 44 42 41 40 40 40 40 40 40 41 41 42 42 43 44 45 46 47 48 50 52 54 57 60 62
40 40 41 41 41 42 43 43 44 44 44 45 45 46 47 48 49 50 51 51 52 53 54 55 56 56 57 58 59 58 58 56 56 56 57 59 60 62 62 62 63 63 63 64 65 67 68 67 65 64 64 63 62 61 59 58 55 53 50 47 45 42 40 39 38 38 38 38 38 38 39 39 39 40 40 41 41 42 43 45 46 48 51 53 56 59
41 41 41 42 42 43 43 44 44 44 45 45 46 46 47 48 49 49 50 51 52 53 54 55 55 56 57 58 59 60 59 57 56 56 57 58 59 61 61 62 62 62 62 61 62 65 68 68 67 65 63 62 61 60 58 56 54 51 48 46 43 41 38 37 36 36 36 36 36 36 37 38 38 38 38 38 38 39 40 41 43 45 48 51 53 56
42 42 42 42 43 43 44 44 45 45 45 46 46 47 47 48 49 49 50 51 51 52 53 54 55 56 56 57 58 59 60 58 57 56 55 56 58 60 61 60 61 61 61 60 60 61 64 67 67 65 63 61 60 59 57 55 52 49 47 45 43 40 38 36 35 35 34 34 34 35 36 37 37 37 38 37 38 38 38 39 40 43 45 48 51 54
43 43 43 43 44 44 44 45 45 45 46 47 47 48 48 49 49 50 50 51 51 52 53 54 55 56 56 57 58 59 59 58 57 55 54 55 57 59 60 59 60 60 60 59 59 59 61 63 65 64 63 61 59 57 55 53 50 48 46 44 43 40 38 36 35 34 34 33 33 34 35 36 37 37 38 38 38 38 38 38 39 41 43 46 49 52
43 43 44 44 44 44 45 45 45 46 47 47 48 48 49 49 49 50 50 51 51 52 52 53 54 55 56 57 58 59 59 57 56 54 53 53 55 57 58 58 58 58 58 57 58 58 59 60 61 61 61 60 58 56 53 51 49 47 45 44 43 41 38 36 35 34 33 33 33 33 34 35 36 37 38 38 38 38 38 38 39 40 42 45 47 50
44 44 44 44 44 45 45 45 46 47 47 48 48 49 49 50 50 50 50 51 51 52 52 53 53 54 55 56 57 58 58 57 55 53 52 52 53 55 56 57 57 56 56 56 56 56 56 58 58 58 58 58 57 55 52 50 48 46 44 43 42 41 39 37 35 34 33 33 33 33 33 34 36 37 38 38 38 37 37 37 38 40 42 44 46 48
44 44 44 44 45 45 46 46 46 47 48 48 49 49 50 50 50 50 51 51 51 52 52 52 53 53 54 55 56 57 57 56 54 53 51 51 51 52 54 55 55 54 53 53 54 54 54 55 55 55 55 55 56 55 52 49 47 46 45 43 42 41 39 38 36 35 34 33 32 32 33 34 35 37 37 37 36 35 35 36 38 40 42 44 46 47
44 44 44 44 45 45 46 46 47 48 48 49 49 50 50 50 50 51 51 51 51 52 52 52 53 53 54 54 55 56 56 56 54 53 51 50 50 51 52 53 53 52 50 50 51 52 52 53 54 54 54 54 54 54 52 50 48 47 46 44 43 42 40 38 37 35 34 33 32 32 33 34 35 36 36 35 34 32 33 35 37 40 42 44 46 47
44 44 44 44 45 45 46 47 47 48 49 49 50 50 50 50 51 51 51 51 52 52 52 53 53 53 54 54 55 55 55 55 54 52 51 50 50 50 50 51 51 50 48 48 48 48 49 50 52 53 53 53 53 52 51 50 49 48 47 45 44 43 42 40 38 36 34 33 32 33 33 34 35 36 36 34 32 31 31 33 36 39 42 44 45 47
44 44 44 44 45 45 46 47 48 48 49 50 50 50 51 51 51 51 51 52 52 52 53 53 54 54 55 55 55 55 55 54 53 52 51 50 49 49 49 49 49 48 47 46 45 45 46 48 49 51 52 52 52 52 51 50 50 49 48 47 45 44 42 40 39 37 35 33 32 33 34 34 35 35 35 34 31 30 30 32 35 38 41 43 45 46
43 43 44 44 45 45 46 47 48 49 49 50 50 51 51 51 52 52 52 52 52 53 53 54 55 55 55 55 55 55 54 53 52 52 51 50 49 48 47 47 46 46 45 44 44 44 44 46 48 49 50 51 52 52 52 51 50 49 49 48 47 45 42 41 39 38 35 33 32 32 34 35 35 35 35 33 31 30 30 32 35 38 41 43 45 46
43 43 43 44 44 45 46 47 48 49 49 50 50 51 51 51 52 52 53 53 53 53 54 54 55 56 56 56 55 54 53 53 52 51 51 50 49 48 47 45 45 44 44 43 43 43 44 45 46 48 49 50 51 52 52 52 50 49 49 49 48 45 43 41 40 38 35 33 31 32 33 35 35 35 34 33 32 31 32 33 35 38 41 43 45 46
42 43 43 44 44 45 46 47 48 49 49 50 50 51 51 51 52 53 53 53 53 54 54 55 56 56 57 56 55 54 53 52 52 51 51 50 48 47 46 44 43 43 42 43 43 44 44 44 45 47 48 49 50 52 52 52 50 49 48 48 47 46 44 41 39 36 34 32 31 31 33 34 35 36 35 33 32 32 32 33 35 38 41 43 45 46
42 42 43 44 44 45 46 47 48 49 49 50 50 50 51 51 52 52 53 54 54 54 55 55 56 57 57 57 56 54 53 52 52 51 51 49 48 46 45 43 42 41 41 41 42 44 44 45 45 46 47 48 49 50 52 52 50 49 48 47 46 45 45 42 38 35 34 31 30 30 32 34 35 36 36 34 33 32 32 34 37 40 42 44 45 46
42 42 43 44 44 45 46 47 48 49 49 50 50 50 51 51 51 52 53 54 54 55 55 56 56 56 56 56 56 55 54 53 52 52 51 49 47 45 43 42 41 40 40 40 41 43 44 45 46 46 47 47 48 49 50 51 50 49 48 46 45 44 44 41 38 35 33 31 29 29 31 33 35 36 37 36 35 34 33 35 37 41 43 45 46 46
42 42 43 44 44 45 46 47 48 49 49 50 50 50 50 51 51 52 53 54 54 55 55 55 55 55 55 55 55 55 55 54 53 52 51 49 46 44 42 41 40 40 39 40 40 42 43 44 45 46 46 46 47 48 49 49 49 48 47 45 44 43 41 39 37 34 32 30 28 28 29 31 34 37 38 37 36 35 34 36 38 41 43 44 45 45
41 42 43 44 44 45 46 47 48 49 49 50 50 50 50 51 51 52 53 53 54 55 55 54 54 54 54 55 55 56 56 55 54 53 50 48 45 43 41 40 39 39 39 40 40 41 42 43 44 44 44 45 45 46 46 46 46 46 45 43 42 41 39 37 34 32 30 28 27 26 27 30 34 37 38 38 37 36 35 36 38 40 42 43 44 45
41 42 43 44 44 45 46 47 48 49 49 50 50 50 50 51 51 52 53 53 53 54 54 53 53 53 53 54 55 56 56 56 55 53 50 47 44 42 40 39 38 38 38 39 40 40 41 42 42 42 42 42 43 44 43 42 42 43 42 41 40 39 37 35 31 28 27 26 25 25 26 29 32 35 37 37 37 35 35 36 38 39 40 42 43 45
41 42 43 43 44 45 46 47 48 49 49 50 50 50 50 51 51 52 52 53 53 53 53 53 53 53 53 54 55 55 56 56 55 53 50 47 44 41 40 39 38 38 38 39 39 39 39 39 39 39 38 39 40 41 40 39 38 38 38 37 37 36 34 31 28 25 24 23 22 22 24 27 30 33 35 35 35 34 34 35 36 38 39 40 42 45
41 42 43 44 44 45 46 47 48 49 49 50 50 51 51 51 51 52 52 52 52 52 52 52 53 53 54 55 55 56 55 55 53 51 48 45 43 41 39 39 39 39 39 38 38 38 38 38 37 36 35 35 36 37 37 35 34 34 33 33 32 32 30 28 24 22 20 20 19 20 22 25 29 31 32 33 32 32 32 33 35 36 37 39 41 44
40 41 42 43 44 45 46 47 48 49 49 50 51 51 51 51 52 52 52 52 52 52 52 52 53 54 55 56 56 56 55 54 52 49 46 44 41 40 39 39 39 39 39 38 38 38 37 37 36 34 32 32 32 32 33 32 30 29 28 28 27 26 26 24 21 18 17 17 17 18 20 23 26 28 29 30 30 30 31 33 34 35 35 36 38 41
40 41 42 43 44 45 46 47 48 48 49 50 51 51 52 52 52 52 52 52 51 51 51 52 53 54 56 57 57 56 55 53 50 48 44 42 40 39 39 39 38 38 37 37 37 37 37 37 36 34 30 28 28 28 29 28 27 26 25 24 22 22 21 20 18 16 15 14 15 16 18 21 24 26 27 28 28 29 31 33 34 34 33 34 35 36
Wind_Direction
311 311 310 309 309 308 308 307 306 306 305 304 303 302 300 299 299 298 298 297 297 297 296 296 296 296 296 295 295 295 294 294 293 293 292 291 291 290 289 289 288 287 287 286 286 285 285 284 283 283 282 281 281 280 278 277 275 273 271 269 267 265 264 262 260 259 258 257 256 256 255 254 253 252 251 249 249 248 247 247 247 248 247 247 246 244
310 310 310 309 308 308 308 307 306 305 304 304 303 301 300 300 299 298 298 297 297 297 297 296 296 296 296 295 295 294 294 293 293 292 291 291 290 289 289 288 287 286 286 285 285 284 283 283 283 282 281 281 280 280 279 278 277 275 274 272 270 268 266 265 263 261 259 258 256 256 255 254 253 252 251 250 249 248 247 246 246 246 246 246 246 245
310 309 309 308 307 307 307 306 305 304 304 303 303 302 301 300 300 299 298 298 297 297 297 296 296 295 295 295 294 294 293 293 292 292 291 291 290 289 289 288 287 286 285 285 284 283 283 282 282 281 280 280 280 279 279 278 277 276 275 274 272 270 269 267 265 263 261 259 257 256 255 254 253 253 252 251 250 248 247 246 245 245 245 245 245 244
310 309 309 308 307 307 306 306 305 304 304 303 302 302 301 300 300 299 299 298 297 296 296 296 295 295 295 295 294 294 294 294 293 293 293 292 291 291 290 289 288 287 286 285 284 283 283 282 281 281 280 279 279 278 278 278 277 277 276 274 273 271 270 268 267 265 264 262 259 257 255 254 253 252 252 251 250 249 248 246 245 244 244 244 244 244
310 309 309 308 307 307 306 306 305 305 304 303 302 301 301 300 300 299 298 298 297 297 296 296 296 296 296 296 296 295 295 295 295 295 294 294 293 293 292 291 290 289 288 287 286 286 285 284 283 282 281 280 279 278 278 277 277 276 275 275 273 272 270 269 267 266 265 263 262 259 257 255 253 252 251 251 250 249 248 247 245 244 243 243 243 243
309 309 308 308 307 307 306 306 306 305 304 303 302 302 301 300 300 299 299 298 298 297 297 297 297 297 297 297 297 297 297 297 297 297 296 296 296 295 294 293 292 292 291 290 290 289 288 288 287 286 284 283 282 280 279 277 276 275 275 274 273 272 271 269 268 266 265 264 263 261 259 257 255 252 251 250 249 249 248 248 246 245 243 242 242 242
309 308 308 307 307 307 307 307 306 306 305 304 303 302 301 301 300 300 299 299 299 299 298 298 298 298 298 299 299 298 298 298 299 299 298 298 298 297 296 295 294 294 293 292 292 291 291 290 290 289 288 286 285 283 281 279 277 276 274 273 272 271 270 269 268 266 265 263 263 262 261 259 257 254 252 250 249 248 248 247 246 245 244 243 242 241
308 308 307 307 306 306 306 307 307 306 305 304 303 303 302 301 301 300 300 300 300 300 300 299 299 299 300 300 300 300 300 300 300 300 300 300 299 298 297 296 295 294 293 293 293 292 292 292 291 290 289 288 287 285 283 281 279 277 275 273 271 270 269 268 267 266 264 263 262 261 261 260 259 257 254 251 249 247 247 246 246 245 244 243 242 241
307 307 306 306 306 306 306 306 306 306 305 304 304 303 303 302 301 301 300 300 301 301 301 301 301 301 301 301 301 302 302 302 302 301 301 300 300 298 297 296 295 294 293 293 292 292 292 292 291 290 289 288 287 285 284 282 280 278 276 273 271 269 268 267 266 265 264 263 262 261 260 259 259 258 256 254 251 248 247 245 245 245 244 243 242 241
306 306 306 306 305 305 306 306 306 305 305 304 304 304 304 303 302 301 301 301 302 302 302 303 302 302 302 302 302 302 302 302 302 302 301 301 300 299 297 296 295 294 293 293 292 292 292 292 291 290 289 287 286 285 283 282 280 278 276 274 272 269 267 266 265 264 264 263 262 260 259 259 258 258 257 256 253 251 248 246 244 244 243 243 242 241
306 305 305 305 305 305 305 305 305 305 304 304 304 304 304 304 304 303 303 302 303 303 303 303 303 303 303 303 303 302 302 302 302 301 301 300 299 298 297 296 295 294 293 293 292 292 292 292 292 291 290 288 287 285 283 281 280 278 276 274 272 270 267 265 264 263 263 262 262 261 260 258 258 257 257 256 255 253 250 247 245 243 243 242 242 241
305 305 305 305 305 305 305 305 305 305 305 304 304 304 304 304 304 305 305 304 304 304 304 303 303 303 304 304 303 303 303 303 302 302 301 301 300 299 298 297 295 295 294 293 293 293 293 293 293 293 292 290 289 287 285 282 280 278 276 274 272 270 268 266 264 262 262 261 261 261 260 259 258 257 256 256 255 254 252 250 247 244 243 242 241 241
305 305 305 305 306 306 306 306 306 305 305 306 306 306 305 305 305 305 305 305 305 305 305 304 304 304 304 304 304 304 304 304 303 303 302 301 301 300 299 298 297 296 296 295 295 295 295 295 295 294 293 292 290 288 286 284 282 280 277 275 273 270 268 266 264 262 261 260 260 260 259 259 258 257 256 255 255 255 254 252 249 246 243 242 241 241
305 305 306 306 307 307 307 307 307 307 307 307 307 307 306 306 306 306 306 306 306 306 305 305 305 305 305 305 306 306 306 305 304 304 303 302 302 301 301 300 299 298 298 297 297 297 297 297 296 295 294 293 291 289 287 285 283 281 278 276 274 271 269 267 264 263 261 260 259 258 258 258 258 257 256 255 255 254 254 253 251 248 245 243 241 240
306 306 306 307 307 308 308 308 308 308 308 308 308 308 307 307 307 307 307 307 307 307 306 306 306 306 306 307 307 307 307 306 305 305 304 303 303 302 302 301 300 299 299 298 298 298 298 298 297 296 295 294 292 290 288 286 284 282 279 277 275 272 270 268 265 263 261 260 259 258 257 257 257 257 256 255 254 254 253 253 252 250 247 244 242 240
307 307 308 308 308 309 309 309 309 310 310 309 309 309 309 309 309 309 309 309 308 308 308 308 308 307 307 308 308 309 308 307 306 305 305 304 303 303 303 302 301 300 300 299 299 299 299 298 297 297 295 294 292 291 289 287 285 283 280 278 275 273 271 268 266 264 262 261 259 258 257 256 256 255 255 255 254 254 253 252 252 250 249 246 243 241
308 309 309 309 310 310 310 310 311 311 311 311 310 310 310 310 310 310 310 310 310 309 309 309 309 309 309 309 309 309 309 308 307 306 305 304 303 303 303 302 301 301 300 300 300 299 299 299 298 297 296 294 293 291 290 288 286 284 282 279 277 274 271 269 267 265 263 262 260 259 258 256 255 255 254 254 254 253 252 252 251 251 249 247 244 242
309 310 311 311 311 311 311 312 312 312 312 312 311 311 311 311 311 311 311 310 310 310 310 309 309 309 309 309 309 309 308 308 307 305 304 303 303 303 303 302 302 301 300 300 300 300 299 299 298 297 296 295 294 293 291 290 288 286 284 281 279 275 273 270 268 266 264 262 261 260 258 257 256 255 254 253 253 252 252 251 251 250 249 248 246 243
311 311 312 312 312 312 312 313 313 313 313 312 312 311 311 311 311 311 310 310 310 309 309 309 309 308 308 308 308 308 308 308 307 305 304 303 303 303 303 303 302 301 301 300 300 300 300 299 299 298 297 296 295 294 293 291 290 288 286 284 281 278 274 271 269 266 264 263 261 260 259 258 257 256 254 253 252 251 250 250 249 249 249 248 246 244
311 312 313 313 313 312 313 313 313 313 312 312 311 311 311 311 310 310 309 309 309 309 308 308 308 308 308 307 307 308 308 308 306 305 304 303 303 303 303 304 303 302 301 301 301 302 301 300 300 299 298 297 296 295 294 293 292 290 288 286 284 281 278 274 271 268 266 264 263 261 260 259 258 257 255 254 252 251 249 249 248 248 247 247 246 244
312 312 313 313 312 312 312 312 312 312 311 311 310 310 310 310 309 309 309 309 308 308 308 308 308 307 307 307 307 308 308 308 307 305 304 303 303 303 304 305 304 303 302 302 303 302 302 301 300 300 299 298 297 296 295 294 293 292 290 289 286 284 281 278 275 272 269 267 265 263 262 260 259 258 256 254 252 251 249 247 247 246 245 245 245 244
311 312 312 311 311 311 311 311 311 310 310 310 309 309 309 309 309 309 309 309 309 309 308 308 307 307 307 307 307 308 308 308 308 307 306 304 304 304 306 306 305 304 303 303 303 303 302 301 301 300 299 299 298 297 296 295 294 293 292 290 288 286 284 281 278 275 272 270 268 265 264 262 260 259 257 255 253 251 249 247 245 244 244 243 243 243
310 310 310 310 310 310 310 310 310 309 309 309 309 309 309 309 309 309 309 309 310 309 309 308 307 307 307 308 308 309 309 309 308 308 307 306 305 306 306 306 305 304 304 304 304 303 302 301 300 300 299 299 298 297 296 295 294 293 292 291 289 287 285 283 281 278 275 273 270 268 266 264 262 259 257 255 253 251 249 247 245 243 242 242 241 241
309 309 309 309 309 309 309 309 309 309 309 310 310 310 310 310 310 310 310 311 311 311 310 309 309 309 309 309 309 309 309 309 309 308 307 306 306 306 307 307 306 305 304 304 303 303 302 301 300 300 299 298 297 297 296 295 294 293 292 291 290 288 286 284 282 279 277 274 272 269 267 265 262 260 258 256 254 251 249 247 245 243 241 240 240 239
308 308 308 308 308 308 308 309 309 310 310 311 311 311 311 311 311 311 311 312 312 312 311 311 310 310 310 310 310 309 309 309 309 308 307 307 306 306 307 306 306 304 304 303 303 302 301 301 300 300 299 298 298 297 296 296 295 294 293 292 290 289 287 284 282 279 277 274 272 270 267 265 262 260 258 256 254 252 249 247 245 243 241 240 239 238
306 307 307 307 307 308 308 309 309 310 311 312 312 312 312 312 312 312 313 314 314 313 312 311 311 311 311 310 310 309 309 309 308 308 307 306 306 306 306 306 305 304 303 303 303 302 301 301 300 300 299 299 298 298 297 297 296 295 294 293 291 289 287 284 281 279 276 274 271 269 266 264 261 259 257 255 253 252 250 247 245 243 241 239 238 237
305 305 306 306 307 307 308 308 309 311 312 313 313 313 313 313 313 314 314 314 314 313 312 311 311 311 310 310 310 309 309 309 308 308 307 306 306 306 306 306 305 304 304 303 303 303 302 302 301 301 300 300 299 299 298 298 297 296 295 293 292 289 286 283 280 277 274 272 269 267 264 262 260 258 256 254 253 251 249 247 245 243 241 240 238 237
304 305 305 306 306 307 308 309 310 311 313 314 314 314 314 314 314 314 314 314 313 312 311 311 311 310 310 310 309 309 309 309 309 309 308 307 306 306 307 307 306 305 305 304 304 303 303 302 302 301 301 301 300 300 299 299 298 297 296 294 292 289 286 282 279 275 272 269 267 264 262 259 258 256 254 253 252 250 249 247 245 243 241 240 239 237
305 305 306 307 307 308 309 310 312 313 314 315 315 315 315 315 314 314 314 314 313 312 311 311 310 310 310 309 309 309 309 309 310 310 309 308 307 307 307 307 306 306 305 305 304 304 303 302 302 302 302 302 301 301 300 300 299 298 297 295 293 290 286 282 278 275 271 267 264 261 258 256 254 253 252 251 250 249 247 246 244 243 241 240 239 238
307 307 308 308 309 310 311 313 314 315 315 316 316 316 315 315 314 314 314 313 312 311 311 310 310 310 310 309 309 309 309 311 311 311 310 308 307 307 307 307 306 306 306 305 304 304 303 303 303 302 302 302 302 301 300 300 299 299 297 295 293 289 286 282 278 274 270 266 262 258 255 252 250 249 248 247 247 246 245 245 243 242 241 240 239 238
309 310 310 311 312 313 314 314 315 316 316 316 316 316 315 315 314 314 313 313 312 311 311 311 310 310 310 310 310 310 310 311 312 311 310 309 307 307 307 307 306 306 305 305 304 304 303 303 303 302 302 302 301 301 300 300 299 298 297 295 292 289 285 282 278 274 270 265 261 256 252 249 247 245 244 243 243 243 243 242 241 241 240 239 238 238
311 312 313 313 314 315 315 316 316 317 317 317 317 316 316 315 314 314 313 313 312 312 312 311 311 311 311 310 310 310 310 312 312 312 310 309 308 307 307 307 306 306 305 304 303 303 302 302 303 302 302 301 300 300 299 299 299 298 297 295 292 289 286 282 279 275 270 265 260 255 250 247 244 242 241 240 239 239 239 238 238 238 238 238 238 237
313 314 314 315 316 316 317 317 317 317 317 317 317 316 316 315 315 314 314 314 313 313 312 312 312 311 311 310 310 310 310 312 312 312 311 309 308 307 307 306 305 305 304 304 303 302 301 301 301 302 301 300 299 299 299 299 299 298 297 295 293 290 287 284 280 276 271 266 260 254 249 245 242 240 239 238 237 236 235 235 235 235 235 236 237 237
314 315 316 316 317 317 317 317 317 317 317 317 317 317 316 316 316 315 315 314 314 313 313 312 312 311 311 310 309 309 310 311 312 311 310 309 307 307 306 305 305 304 304 303 302 301 300 300 300 300 300 299 299 298 298 298 298 297 296 294 292 290 288 285 281 277 272 267 261 255 249 244 241 239 238 237 236 235 234 233 233 232 233 234 235 236
315 316 317 317 317 317 317 317 318 318 317 317 317 317 317 317 316 316 315 315 314 314 313 312 311 311 310 309 309 309 309 310 311 310 309 308 307 306 306 305 305 305 304 303 302 301 300 299 299 298 298 298 298 297 297 297 297 296 295 293 291 290 287 285 282 278 273 268 262 255 250 245 241 239 238 236 235 234 234 233 232 231 231 231 233 234
316 316 317 317 317 317 317 318 318 318 318 318 318 318 317 317 317 316 315 315 314 314 313 312 311 310 309 309 308 308 309 310 310 309 309 308 307 306 306 305 305 305 305 304 303 301 300 299 299 298 297 297 297 297 297 297 297 295 294 292 290 289 286 284 281 277 273 268 262 256 250 246 242 239 237 234 233 233 234 233 232 231 230 230 231 232
316 317 317 317 317 317 318 318 318 318 318 318 318 318 318 317 317 316 316 315 314 313 312 311 310 309 309 308 308 308 309 310 310 309 309 308 308 308 307 307 306 306 306 305 304 302 301 300 299 298 297 296 296 297 297 297 296 294 293 291 290 288 285 283 280 277 273 268 262 256 251 246 243 239 235 232 230 231 233 233 232 231 229 229 229 230
316 317 317 317 318 318 318 318 319 319 319 319 319 318 318 318 317 316 315 315 314 313 312 311 310 310 309 309 309 309 310 310 310 310 310 310 310 310 309 309 308 307 306 305 304 303 301 300 298 297 296 296 295 295 295 295 294 293 292 290 289 286 284 282 279 276 272 267 261 255 251 246 243 239 234 229 227 228 231 232 232 231 229 229 229 229
316 317 317 318 318 318 319 319 319 319 319 319 319 319 318 318 317 316 315 315 314 314 313 312 312 311 311 311 311 311 311 312 312 312 312 312 313 313 312 311 310 308 307 305 304 302 300 298 297 296 295 295 294 294 293 293 292 291 291 289 287 285 283 281 279 276 272 267 261 255 250 245 241 237 233 228 224 224 227 230 230 229 229 228 229 229
316 317 318 318 318 319 319 319 319 319 319 319 319 319 319 318 317 316 316 315 315 315 314 314 313 313 313 313 313 313 313 313 314 314 315 316 316 316 315 314 312 310 308 306 304 302 299 297 296 294 294 293 293 292 292 291 290 290 289 288 286 284 283 280 278 276 272 267 261 255 249 244 240 235 231 226 223 222 224 225 226 227 227 227 227 228
317 317 318 318 318 319 319 319 319 319 319 319 319 319 319 318 318 317 317 316 316 316 316 315 315 314 314 314 314 315 315 315 316 317 318 319 319 319 317 315 314 312 310 307 305 302 299 297 295 294 293 292 291 291 290 290 290 289 288 286 285 284 282 280 278 275 272 267 261 254 249 244 239 233 229 225 223 222 222 223 224 224 224 225 225 225
318 318 318 319 319 319 319 319 319 319 319 320 320 320 320 319 318 318 317 317 317 317 317 317 316 316 315 315 315 316 317 318 319 320 321 322 321 321 319 317 315 313 311 308 305 302 299 297 295 293 292 291 290 289 289 289 289 288 286 285 284 284 282 280 277 275 273 268 261 253 248 243 237 232 227 224 222 222 222 222 222 222 222 222 222 222
318 318 319 319 319 319 319 319 320 320 320 320 320 320 320 320 319 319 319 319 319 319 319 318 318 317 317 316 316 317 318 320 322 323 324 324 323 322 320 318 315 313 311 308 304 301 299 296 294 292 291 290 288 287 287 288 288 287 285 284 283 282 281 279 277 275 272 268 261 253 246 241 236 232 227 224 222 221 221 221 221 220 220 219 219 218
319 319 319 319 319 319 320 320 320 320 320 321 321 321 321 320 320 320 320 320 320 320 320 320 319 318 318 318 318 319 320 322 324 325 326 326 325 323 321 318 316 313 310 307 303 301 298 296 294 292 291 289 287 286 286 286 287 286 285 285 283 281 280 279 278 276 272 267 260 252 245 239 235 231 227 224 222 221 221 222 221 220 218 217 216 214
319 319 319 319 320 320 320 321 321 321 321 321 321 321 321 321 321 321 321 322 322 321 321 321 320 320 319 320 321 322 323 325 326 327 327 326 325 323 321 319 316 313 310 306 302 299 297 295 294 293 291 289 287 285 285 285 285 285 285 285 283 282 280 280 279 276 273 267 260 251 243 238 234 230 228 225 223 222 222 222 221 220 217 215 213 211
319 320 320 320 320 321 321 321 321 321 321 322 322 322 322 322 323 323 323 323 323 322 322 321 321 321 322 323 324 326 327 327 328 328 327 327 325 324 322 319 317 314 310 306 302 299 296 293 292 292 291 289 287 286 286 285 284 284 285 284 283 282 281 280 278 276 272 267 260 251 242 236 233 230 229 227 225 223 223 223 221 219 216 213 210 208
320 320 320 320 321 321 321 322 322 322 322 323 323 323 323 324 324 324 324 324 323 322 322 322 322 323 324 326 328 329 330 329 329 328 327 327 325 324 322 320 317 314 310 306 302 299 296 293 292 290 289 287 287 287 288 287 286 284 284 285 284 282 281 279 277 275 272 267 260 251 242 236 233 231 229 228 227 226 224 222 220 217 213 210 207 206
321 321 321 321 321 322 322 322 323 323 323 323 324 324 324 325 325 325 325 324 323 323 323 323 324 325 327 328 330 331 331 330 329 328 327 327 326 325 323 321 318 315 311 307 303 299 297 295 293 291 290 289 288 289 291 291 289 287 286 285 284 282 280 279 277 275 271 266 259 251 242 236 232 230 229 228 228 227 224 220 216 212 209 206 205 205
322 322 322 322 322 323 323 323 324 324 324 324 324 325 326 326 326 326 325 324 324 324 325 326 327 328 330 331 332 332 332 330 329 328 327 327 326 325 324 322 319 316 312 308 305 302 300 299 298 297 295 294 293 293 294 294 293 290 288 286 283 281 280 278 276 274 271 266 259 250 241 234 230 228 228 228 228 225 220 215 210 206 203 202 202 204
322 322 322 323 323 324 324 324 324 325 325 325 326 326 327 327 327 326 326 325 325 326 327 329 330 332 333 333 333 333 332 330 329 328 327 327 327 326 325 323 321 317 313 310 307 305 304 304 304 304 303 301 300 299 299 298 296 292 288 284 282 280 278 277 276 274 271 266 257 247 238 230 226 225 226 227 225 219 211 205 200 197 196 197 200 204
323 323 323 324 324 325 325 325 325 326 326 326 327 327 328 328 327 327 326 327 327 328 330 331 333 334 335 335 334 333 332 330 328 328 328 328 328 328 327 325 323 319 316 312 310 308 308 308 309 310 311 311 309 306 303 300 297 292 287 283 280 278 276 275 274 273 270 264 253 242 232 226 222 222 223 222 217 208 199 193 189 188 189 194 199 205
Height
3022 3021 3020 3019 3018 3017 3017 3016 3015 3014 3013 3013 3012 3011 3010 3009 3009 3008 3007 3005 3004 3003 3002 3001 3000 2999 2999 2998 2997 2997 2996 2995 2994 2993 2992 2991 2991 2990 2989 2988 2987 2986 2985 2984 2983 2982 2982 2981 2980 2979 2979 2978 2978 2977 2977 2977 2977 2977 2977 2978 2978 2978 2978 2978 2978 2978 2978 2979 2979 2980 2981 2982 2983 2984 2985 2986 2988 2989 2991 2992 2994 2995 2996 2998 3000 3002
3019 3018 3017 3016 3014 3014 3013 3013 3012 3010 3009 3009 3008 3007 3006 3006 3005 3004 3003 3002 3001 2999 2998 2997 2996 2996 2995 2994 2993 2993 2992 2991 2990 2989 2988 2988 2987 2986 2985 2984 2983 2982 2981 2980 2979 2978 2977 2977 2976 2975 2974 2974 2973 2973 2972 2972 2972 2972 2972 2972 2972 2972 2972 2972 2972 2973 2973 2973 2974 2974 2975 2976 2977 2978 2979 2980 2982 2984 2985 2987 2988 2990 2991 2992 2994 2996
3015 3014 3014 3012 3012 3011 3010 3010 3009 3007 3006 3005 3004 3003 3002 3002 3001 3000 2999 2998 2997 2996 2995 2993 2992 2992 2991 2990 2989 2989 2988 2987 2986 2985 2984 2984 2983 2982 2981 2980 2979 2978 2977 2976 2975 2974 2973 2972 2972 2971 2970 2969 2969 2968 2967 2967 2967 2967 2967 2967 2967 2967 2967 2967 2967 2967 2967 2967 2968 2968 2969 2970 2971 2972 2973 2974 2976 2977 2979 2981 2983 2984 2986 2987 2989 2991
3012 3011 3010 3009 3008 3007 3007 3006 3005 3004 3003 3002 3001 3000 2999 2997 2997 2996 2995 2994 2993 2992 2991 2990 2989 2987 2987 2986 2985 2984 2983 2982 2982 2981 2980 2979 2978 2977 2977 2976 2975 2974 2973 2972 2971 2970 2969 2968 2967 2967 2966 2965 2964 2964 2963 2962 2962 2962 2962 2961 2961 2961 2961 2961 2961 2961 2961 2962 2962 2962 2963 2964 2965 2966 2967 2968 2970 2971 2973 2975 2977 2979 2980 2982 2983 2985
3008 3007 3006 3005 3004 3004 3003 3002 3002 3001 3000 2999 2997 2996 2995 2994 2993 2992 2991 2990 2989 2988 2987 2986 2984 2983 2982 2981 2980 2979 2978 2977 2977 2976 2975 2974 2973 2972 2972 2971 2970 2969 2968 2967 2967 2966 2965 2964 2963 2962 2962 2961 2960 2960 2959 2958 2957 2957 2956 2956 2956 2956 2956 2956 2956 2956 2956 2956 2956 2956 2957 2957 2958 2960 2961 2962 2963 2965 2967 2969 2971 2973 2975 2976 2978 2979
3005 3003 3002 3001 3000 3000 2999 2999 2998 2997 2996 2995 2993 2992 2991 2990 2989 2988 2987 2985 2984 2983 2982 2981 2980 2979 2977 2976 2975 2974 2973 2972 2972 2971 2970 2969 2968 2967 2967 2966 2965 2964 2963 2962 2961 2961 2960 2959 2958 2957 2957 2956 2956 2955 2954 2954 2953 2952 2952 2951 2951 2950 2950 2950 2950 2950 2950 2950 2950 2950 2951 2951 2952 2953 2954 2956 2957 2959 2960 2962 2964 2966 2968 2970 2972 2974
3002 3001 2999 2997 2997 2996 2995 2995 2994 2993 2992 2990 2989 2988 2987 2986 2985 2983 2982 2981 2980 2978 2977 2976 2975 2974 2973 2972 2971 2969 2968 2967 2967 2966 2965 2964 2963 2962 2962 2960 2959 2959 2958 2957 2957 2956 2955 2954 2953 2953 2952 2951 2951 2950 2949 2949 2948 2947 2947 2946 2946 2945 2945 2945 2945 2945 2945 2945 2945 2945 2945 2945 2946 2947 2948 2949 2951 2952 2954 2956 2957 2959 2962 2964 2966 2968
2999 2998 2997 2995 2993 2992 2992 2991 2990 2989 2987 2986 2985 2983 2983 2982 2980 2979 2977 2976 2975 2974 2972 2972 2971 2970 2968 2967 2966 2964 2963 2962 2962 2961 2960 2959 2958 2957 2957 2956 2955 2954 2953 2952 2952 2951 2950 2950 2949 2948 2947 2947 2946 2945 2944 2943 2943 2942 2942 2942 2941 2940 2940 2939 2939 2939 2939 2939 2939 2939 2939 2939 2940 2941 2941 2942 2944 2945 2947 2949 2951 2952 2955 2957 2959 2961
2996 2994 2993 2992 2990 2989 2988 2988 2987 2986 2984 2982 2981 2979 2978 2977 2976 2975 2973 2972 2971 2969 2968 2966 2965 2964 2964 2962 2961 2959 2958 2958 2957 2956 2955 2954 2953 2952 2951 2950 2949 2949 2948 2947 2947 2946 2946 2945 2944 2944 2943 2942 2941 2940 2939 2938 2938 2937 2937 2937 2936 2936 2935 2934 2934 2934 2934 2934 2934 2934 2934 2934 2934 2934 2935 2936 2937 2939 2940 2942 2944 2946 2948 2950 2952 2954
2993 2991 2990 2989 2988 2986 2985 2984 2984 2983 2981 2979 2977 2976 2974 2972 2970 2969 2968 2968 2967 2965 2963 2962 2960 2959 2958 2958 2957 2955 2954 2953 2952 2952 2951 2949 2948 2947 2946 2945 2944 2943 2943 2942 2942 2942 2941 2940 2940 2939 2938 2937 2937 2936 2935 2934 2933 2932 2932 2931 2931 2930 2930 2929 2929 2928 2928 2928 2928 2928 2928 2928 2929 2929 2929 2930 2931 2932 2934 2935 2937 2939 2941 2943 2945 2947
2990 2988 2987 2986 2985 2984 2982 2981 2980 2979 2978 2976 2974 2973 2971 2968 2966 2964 2963 2962 2962 2961 2959 2958 2956 2954 2953 2952 2952 2951 2949 2948 2947 2947 2946 2945 2943 2942 2941 2940 2939 2938 2937 2937 2937 2936 2936 2935 2935 2934 2933 2932 2932 2931 2930 2929 2928 2927 2927 2926 2925 2925 2924 2924 2924 2923 2923 2923 2922 2922 2923 2923 2923 2923 2924 2924 2925 2926 2927 2929 2931 2932 2934 2936 2938 2940
2987 2986 2984 2983 2982 2981 2979 2978 2977 2975 2974 2972 2971 2969 2967 2966 2963 2960 2958 2957 2957 2956 2955 2953 2952 2951 2949 2947 2946 2945 2945 2943 2942 2941 2940 2939 2938 2937 2935 2934 2933 2933 2932 2931 2931 2931 2930 2930 2929 2928 2927 2927 2926 2926 2925 2924 2923 2922 2921 2921 2920 2919 2919 2918 2918 2918 2918 2917 2917 2917 2917 2917 2918 2918 2918 2918 2919 2920 2921 2923 2924 2926 2928 2930 2932 2933
2984 2982 2981 2980 2979 2977 2976 2975 2973 2972 2970 2969 2967 2965 2963 2961 2960 2957 2955 2953 2952 2951 2950 2948 2947 2947 2946 2943 2941 2940 2939 2937 2937 2935 2934 2933 2932 2931 2929 2928 2927 2927 2926 2925 2925 2924 2924 2923 2922 2922 2922 2921 2920 2920 2919 2918 2917 2917 2916 2915 2914 2914 2913 2912 2912 2912 2912 2912 2912 2911 2911 2911 2912 2912 2913 2913 2913 2914 2915 2916 2918 2920 2922 2923 2925 2927
2981 2980 2978 2977 2976 2974 2973 2971 2969 2968 2967 2965 2963 2961 2959 2957 2956 2954 2952 2950 2948 2947 2945 2943 2942 2941 2941 2939 2937 2935 2933 2932 2930 2929 2928 2927 2926 2925 2923 2922 2921 2920 2920 2919 2918 2918 2918 2917 2916 2915 2915 2915 2914 2914 2913 2912 2912 2911 2910 2909 2908 2908 2907 2907 2906 2906 2906 2906 2906 2906 2906 2906 2906 2906 2907 2907 2907 2908 2909 2910 2912 2913 2915 2917 2919 2921
2978 2976 2975 2974 2972 2971 2969 2967 2966 2964 2963 2961 2959 2957 2955 2953 2952 2950 2948 2945 2944 2942 2941 2938 2937 2936 2936 2935 2932 2930 2928 2926 2924 2923 2922 2921 2921 2920 2917 2916 2914 2914 2914 2913 2912 2912 2912 2911 2910 2909 2908 2908 2908 2907 2907 2906 2905 2905 2904 2903 2902 2902 2901 2900 2900 2900 2900 2900 2900 2900 2900 2900 2900 2901 2901 2902 2902 2902 2903 2903 2905 2907 2908 2911 2912 2914
2975 2973 2972 2970 2969 2967 2966 2964 2962 2960 2959 2957 2955 2953 2951 2949 2947 2946 2944 2941 2939 2937 2936 2933 2931 2930 2930 2930 2929 2926 2922 2920 2918 2917 2916 2915 2915 2915 2913 2910 2908 2908 2909 2908 2907 2906 2906 2905 2904 2903 2902 2902 2901 2901 2900 2899 2898 2898 2897 2897 2896 2895 2895 2894 2894 2893 2893 2893 2893 2893 2894 2894 2894 2895 2895 2896 2896 2897 2897 2897 2898 2900 2902 2904 2906 2908
2972 2970 2968 2967 2965 2964 2962 2961 2959 2957 2955 2953 2952 2950 2948 2946 2944 2942 2940 2937 2935 2933 2931 2929 2926 2924 2922 2923 2924 2922 2919 2915 2912 2911 2910 2909 2909 2910 2909 2906 2903 2902 2903 2903 2902 2901 2900 2899 2898 2897 2896 2895 2895 2894 2893 2892 2892 2891 2891 2890 2889 2889 2888 2888 2887 2887 2887 2887 2887 2887 2887 2888 2888 2889 2889 2890 2890 2891 2891 2892 2892 2893 2895 2897 2900 2902
2968 2967 2965 2963 2962 2960 2959 2957 2956 2953 2952 2950 2948 2946 2944 2942 2941 2938 2936 2934 2932 2929 2927 2925 2923 2921 2918 2917 2917 2917 2916 2912 2907 2905 2904 2903 2903 2904 2904 2902 2898 2897 2897 2897 2897 2896 2895 2893 2892 2891 2890 2889 2888 2887 2886 2886 2885 2884 2884 2883 2883 2882 2882 2881 2881 2880 2880 2880 2880 2881 2881 2881 2882 2882 2883 2884 2884 2885 2885 2886 2887 2887 2888 2891 2893 2895
2965 2964 2962 2960 2958 2957 2955 2954 2952 2950 2948 2946 2944 2942 2941 2939 2937 2935 2932 2930 2928 2926 2924 2921 2919 2917 2916 2913 2912 2912 2912 2908 2903 2900 2898 2897 2897 2899 2900 2897 2894 2892 2892 2892 2891 2890 2889 2887 2886 2885 2884 2882 2882 2881 2879 2879 2878 2877 2877 2877 2876 2876 2875 2875 2874 2874 2874 2874 2874 2874 2874 2875 2875 2876 2877 2877 2878 2879 2879 2880 2881 2881 2882 2884 2886 2889
2962 2961 2959 2957 2955 2953 2952 2951 2950 2948 2945 2943 2941 2939 2937 2936 2934 2932 2930 2927 2925 2923 2921 2918 2916 2914 2912 2910 2908 2908 2907 2904 2900 2896 2894 2892 2892 2893 2895 2892 2889 2887 2886 2886 2886 2885 2882 2881 2879 2878 2877 2876 2875 2874 2873 2872 2871 2871 2870 2870 2869 2869 2868 2868 2867 2867 2867 2867 2867 2867 2867 2868 2868 2869 2870 2871 2871 2872 2873 2873 2874 2875 2876 2878 2880 2882
2959 2958 2957 2955 2953 2951 2949 2948 2947 2946 2943 2941 2938 2936 2934 2932 2931 2928 2927 2925 2922 2920 2918 2916 2913 2910 2909 2906 2905 2904 2903 2901 2896 2892 2889 2887 2887 2888 2890 2888 2884 2881 2880 2880 2880 2879 2877 2874 2873 2872 2871 2870 2868 2867 2866 2865 2864 2864 2863 2863 2862 2862 2861 2861 2861 2860 2860 2860 2860 2860 2861 2861 2861 2862 2862 2863 2864 2865 2866 2867 2868 2869 2870 2871 2873 2876
2956 2955 2954 2953 2951 2949 2947 2946 2945 2943 2941 2938 2936 2933 2931 2929 2927 2925 2923 2921 2919 2917 2914 2912 2909 2907 2906 2903 2901 2900 2899 2897 2892 2888 2885 2882 2881 2883 2886 2883 2879 2876 2875 2874 2874 2873 2871 2868 2867 2865 2864 2863 2862 2861 2860 2859 2858 2857 2857 2856 2856 2855 2854 2854 2853 2853 2853 2853 2853 2853 2853 2854 2854 2854 2855 2856 2857 2858 2859 2860 2861 2862 2863 2865 2867 2869
2954 2953 2952 2951 2949 2947 2945 2943 2942 2940 2938 2936 2933 2931 2928 2926 2924 2921 2919 2918 2916 2913 2910 2908 2906 2904 2902 2900 2898 2896 2895 2893 2889 2885 2882 2877 2876 2877 2880 2878 2874 2871 2869 2869 2868 2866 2864 2862 2861 2859 2858 2857 2856 2855 2854 2853 2852 2851 2850 2850 2849 2848 2847 2847 2846 2846 2846 2846 2846 2846 2846 2847 2847 2847 2847 2848 2849 2850 2851 2852 2854 2855 2857 2858 2860 2862
2952 2951 2950 2948 2947 2945 2943 2941 2939 2937 2935 2933 2930 2928 2925 2923 2921 2918 2916 2914 2912 2909 2906 2903 2901 2899 2898 2897 2894 2892 2891 2889 2885 2881 2877 2874 2872 2872 2874 2873 2869 2865 2863 2864 2862 2860 2857 2856 2855 2853 2852 2851 2850 2849 2847 2847 2846 2845 2844 2843 2843 2842 2841 2840 2839 2839 2838 2838 2838 2839 2839 2839 2839 2840 2840 2841 2842 2843 2844 2845 2847 2848 2850 2852 2854 2856
2951 2949 2947 2946 2945 2943 2941 2938 2937 2934 2932 2930 2927 2924 2922 2920 2917 2915 2913 2911 2908 2905 2902 2899 2896 2894 2893 2892 2890 2888 2887 2885 2882 2878 2874 2870 2867 2867 2868 2868 2865 2860 2857 2857 2857 2855 2851 2849 2848 2847 2846 2844 2843 2842 2842 2841 2840 2839 2838 2837 2836 2835 2834 2833 2832 2832 2831 2831 2831 2831 2832 2832 2832 2832 2833 2834 2835 2836 2837 2838 2840 2841 2843 2845 2847 2849
2949 2947 2946 2944 2942 2941 2938 2936 2934 2932 2930 2927 2924 2921 2919 2916 2914 2912 2910 2907 2905 2902 2898 2895 2892 2891 2889 2888 2886 2884 2883 2881 2879 2875 2871 2867 2863 2862 2862 2863 2860 2855 2851 2850 2850 2848 2845 2842 2841 2840 2839 2837 2837 2836 2835 2834 2833 2832 2831 2831 2830 2829 2828 2827 2826 2825 2824 2824 2824 2824 2825 2825 2825 2825 2826 2827 2828 2829 2830 2831 2833 2834 2836 2838 2840 2842
2947 2946 2944 2942 2940 2938 2937 2934 2932 2930 2928 2925 2922 2919 2916 2913 2910 2908 2906 2904 2902 2898 2895 2892 2889 2886 2885 2883 2882 2880 2879 2877 2875 2872 2868 2864 2859 2857 2856 2857 2854 2850 2845 2843 2842 2841 2839 2836 2834 2833 2832 2831 2830 2829 2828 2827 2826 2825 2825 2824 2823 2822 2821 2820 2819 2819 2818 2818 2818 2818 2818 2818 2818 2819 2820 2820 2821 2822 2823 2825 2826 2828 2830 2832 2833 2835
2945 2943 2942 2940 2938 2936 2934 2932 2930 2927 2925 2922 2920 2917 2913 2910 2907 2904 2902 2901 2898 2895 2892 2889 2886 2882 2880 2878 2877 2876 2875 2873 2871 2868 2865 2860 2855 2852 2851 2850 2848 2844 2840 2836 2834 2834 2833 2830 2827 2826 2825 2824 2823 2822 2821 2820 2820 2819 2818 2817 2817 2816 2815 2814 2813 2813 2812 2812 2812 2812 2812 2812 2813 2813 2814 2815 2816 2817 2817 2819 2820 2822 2824 2826 2827 2829
2942 2941 2939 2937 2935 2933 2931 2928 2926 2924 2922 2919 2917 2914 2911 2908 2905 2902 2899 2897 2895 2892 2888 2886 2883 2880 2877 2874 2872 2871 2871 2870 2867 2864 2860 2855 2851 2847 2847 2845 2842 2839 2836 2831 2827 2825 2825 2824 2822 2820 2817 2817 2816 2815 2814 2813 2813 2812 2812 2811 2810 2809 2809 2808 2808 2807 2807 2807 2807 2807 2807 2807 2807 2808 2809 2810 2810 2811 2812 2814 2815 2817 2818 2820 2822 2823
2939 2937 2935 2934 2932 2929 2927 2925 2923 2921 2918 2916 2914 2911 2908 2905 2902 2899 2897 2894 2891 2888 2885 2882 2880 2877 2873 2870 2867 2865 2865 2866 2864 2861 2856 2851 2846 2843 2842 2840 2837 2835 2832 2827 2821 2816 2815 2816 2817 2815 2812 2811 2809 2809 2808 2807 2807 2806 2805 2805 2804 2804 2803 2803 2802 2802 2802 2802 2802 2802 2802 2802 2803 2803 2804 2805 2806 2807 2808 2809 2811 2812 2814 2815 2817 2818
2935 2933 2932 2930 2927 2925 2923 2921 2919 2917 2915 2913 2910 2908 2905 2902 2899 2897 2894 2891 2888 2885 2882 2878 2876 2873 2870 2867 2863 2860 2858 2860 2861 2858 2853 2847 2842 2839 2838 2835 2832 2829 2828 2825 2819 2812 2807 2806 2808 2809 2808 2805 2803 2802 2802 2802 2801 2800 2800 2799 2798 2798 2798 2798 2798 2797 2797 2797 2798 2798 2798 2798 2799 2799 2800 2801 2802 2803 2804 2805 2807 2808 2809 2811 2812 2814
2931 2929 2927 2926 2923 2921 2919 2917 2915 2913 2911 2909 2907 2904 2902 2899 2896 2893 2891 2888 2885 2882 2878 2875 2872 2869 2867 2864 2861 2857 2854 2855 2855 2854 2850 2844 2838 2835 2834 2832 2827 2824 2823 2821 2818 2812 2805 2799 2799 2801 2802 2800 2798 2797 2796 2796 2796 2795 2794 2793 2792 2792 2792 2793 2792 2792 2792 2793 2793 2794 2794 2795 2795 2795 2796 2797 2798 2799 2800 2802 2803 2805 2806 2807 2808 2809
2927 2925 2923 2921 2919 2917 2915 2913 2911 2909 2907 2905 2903 2901 2898 2896 2893 2890 2887 2884 2882 2878 2875 2872 2868 2866 2863 2860 2857 2854 2852 2851 2851 2849 2846 2841 2835 2831 2830 2827 2824 2821 2818 2816 2813 2810 2804 2798 2794 2793 2793 2793 2792 2791 2791 2791 2791 2790 2789 2788 2787 2787 2787 2788 2787 2787 2787 2788 2788 2789 2790 2791 2791 2792 2792 2793 2794 2795 2796 2797 2799 2801 2802 2803 2804 2805
2923 2921 2919 2917 2916 2914 2912 2910 2908 2906 2903 2901 2899 2897 2895 2892 2890 2887 2884 2881 2878 2875 2872 2869 2866 2862 2859 2856 2853 2851 2849 2849 2848 2846 2842 2838 2833 2828 2825 2823 2821 2817 2814 2811 2808 2805 2800 2796 2792 2790 2787 2786 2786 2786 2786 2786 2786 2785 2785 2784 2783 2782 2782 2783 2783 2783 2783 2783 2784 2784 2785 2786 2787 2787 2788 2789 2790 2791 2792 2794 2795 2797 2798 2799 2800 2801
2919 2918 2916 2914 2912 2910 2908 2906 2904 2902 2900 2898 2896 2893 2891 2888 2886 2883 2881 2878 2875 2872 2869 2867 2863 2860 2857 2853 2849 2847 2845 2845 2845 2843 2840 2836 2831 2826 2822 2819 2817 2814 2810 2806 2803 2800 2795 2792 2790 2787 2784 2780 2779 2780 2781 2782 2781 2780 2780 2779 2779 2778 2778 2778 2778 2778 2778 2778 2779 2780 2781 2782 2782 2783 2783 2784 2786 2787 2788 2790 2791 2792 2793 2795 2796 2797
2916 2914 2913 2911 2909 2907 2904 2902 2901 2899 2896 2894 2892 2890 2887 2885 2882 2880 2877 2875 2872 2869 2866 2864 2861 2858 2855 2851 2847 2844 2841 2841 2841 2840 2837 2833 2829 2824 2818 2814 2812 2810 2806 2801 2798 2796 2792 2787 2784 2783 2781 2777 2774 2774 2775 2777 2777 2776 2775 2775 2774 2774 2773 2774 2774 2774 2774 2774 2774 2775 2776 2777 2778 2778 2779 2780 2782 2783 2784 2786 2787 2788 2789 2791 2792 2794
2913 2911 2910 2907 2906 2903 2901 2899 2897 2895 2893 2891 2888 2886 2884 2882 2879 2876 2874 2871 2869 2866 2863 2861 2858 2855 2852 2848 2845 2842 2839 2837 2836 2835 2832 2829 2825 2821 2816 2810 2808 2807 2803 2798 2794 2791 2788 2784 2780 2777 2777 2775 2772 2770 2770 2771 2771 2771 2770 2770 2770 2769 2769 2769 2770 2770 2770 2770 2770 2771 2772 2773 2774 2774 2775 2776 2777 2778 2780 2781 2782 2784 2785 2787 2788 2790
2910 2908 2907 2905 2902 2900 2898 2896 2893 2892 2889 2887 2885 2882 2880 2878 2875 2873 2870 2867 2865 2862 2860 2857 2854 2851 2848 2845 2842 2839 2836 2833 2831 2829 2827 2824 2821 2817 2812 2806 2802 2801 2799 2796 2792 2787 2784 2781 2777 2773 2771 2770 2769 2768 2767 2767 2766 2765 2765 2765 2765 2765 2764 2765 2765 2766 2766 2766 2766 2767 2767 2769 2770 2771 2771 2771 2772 2773 2775 2776 2778 2780 2782 2783 2785 2786
2908 2906 2904 2902 2899 2897 2895 2892 2890 2888 2886 2884 2882 2879 2877 2874 2872 2869 2867 2864 2861 2858 2855 2852 2849 2846 2843 2840 2837 2835 2832 2829 2827 2824 2821 2818 2815 2812 2808 2802 2798 2795 2793 2792 2789 2786 2782 2778 2774 2771 2768 2766 2765 2764 2764 2763 2762 2761 2761 2760 2760 2760 2760 2761 2761 2761 2761 2762 2762 2762 2763 2764 2765 2766 2767 2767 2767 2768 2770 2772 2773 2776 2777 2779 2781 2783
2905 2903 2901 2899 2897 2894 2892 2890 2887 2885 2883 2881 2878 2876 2873 2871 2867 2865 2862 2860 2857 2854 2851 2847 2844 2841 2838 2835 2832 2830 2827 2825 2822 2819 2816 2813 2810 2806 2803 2799 2794 2791 2788 2786 2784 2782 2779 2775 2771 2768 2767 2764 2762 2759 2759 2759 2758 2758 2757 2756 2755 2755 2756 2756 2756 2756 2757 2757 2757 2758 2758 2759 2761 2762 2763 2763 2764 2764 2765 2767 2769 2771 2773 2775 2777 2779
2902 2900 2898 2896 2894 2892 2889 2887 2885 2882 2880 2877 2875 2872 2870 2867 2864 2861 2858 2855 2853 2850 2847 2843 2839 2836 2833 2830 2828 2826 2822 2820 2817 2814 2811 2807 2804 2801 2798 2795 2791 2787 2785 2782 2779 2777 2776 2772 2768 2765 2763 2761 2758 2756 2755 2754 2754 2754 2754 2752 2750 2750 2751 2752 2752 2752 2752 2753 2753 2754 2754 2755 2756 2757 2758 2759 2760 2761 2762 2763 2764 2767 2769 2771 2773 2775
2900 2897 2895 2893 2891 2889 2887 2884 2882 2879 2877 2874 2872 2869 2866 2863 2860 2857 2853 2851 2848 2845 2842 2839 2835 2831 2827 2825 2823 2821 2818 2815 2812 2809 2805 2802 2799 2796 2793 2790 2787 2785 2782 2778 2775 2772 2771 2769 2766 2763 2760 2758 2756 2753 2750 2749 2750 2750 2749 2748 2747 2746 2746 2746 2747 2748 2748 2748 2749 2750 2751 2751 2752 2753 2755 2756 2756 2757 2758 2759 2761 2762 2764 2767 2769 2772
2897 2895 2892 2890 2888 2886 2884 2882 2879 2877 2874 2871 2869 2866 2863 2860 2857 2853 2850 2847 2844 2841 2837 2834 2830 2826 2822 2819 2817 2815 2813 2811 2807 2804 2801 2797 2795 2792 2789 2786 2783 2781 2779 2776 2771 2767 2766 2764 2762 2760 2757 2755 2753 2750 2746 2745 2745 2745 2745 2744 2744 2743 2741 2740 2742 2744 2744 2744 2745 2746 2746 2747 2748 2749 2751 2752 2752 2753 2755 2756 2757 2758 2760 2762 2765 2768
2894 2892 2890 2888 2885 2883 2881 2878 2876 2873 2871 2868 2866 2863 2860 2857 2854 2850 2847 2843 2840 2837 2833 2830 2826 2822 2818 2815 2812 2809 2807 2805 2802 2799 2796 2793 2791 2788 2785 2782 2780 2777 2776 2773 2769 2764 2762 2759 2757 2755 2754 2752 2749 2746 2743 2741 2740 2740 2739 2740 2740 2739 2737 2737 2737 2739 2740 2740 2741 2742 2742 2743 2744 2745 2747 2747 2748 2750 2751 2752 2753 2754 2756 2758 2761 2764
2892 2889 2887 2885 2883 2880 2878 2875 2873 2870 2868 2865 2862 2860 2857 2854 2851 2847 2843 2839 2836 2832 2829 2826 2822 2818 2813 2811 2807 2804 2801 2798 2797 2794 2792 2789 2787 2784 2782 2779 2776 2773 2771 2769 2766 2762 2759 2756 2752 2751 2750 2748 2745 2742 2740 2738 2736 2735 2735 2735 2735 2735 2733 2733 2734 2735 2736 2736 2737 2738 2739 2740 2741 2742 2742 2743 2745 2746 2747 2748 2750 2751 2753 2756 2759 2762
2889 2887 2885 2882 2880 2878 2875 2872 2870 2867 2865 2862 2859 2857 2853 2850 2847 2844 2840 2837 2832 2829 2825 2822 2819 2815 2810 2807 2803 2800 2796 2793 2791 2789 2787 2785 2783 2781 2778 2775 2772 2770 2767 2764 2761 2759 2757 2753 2750 2747 2745 2743 2740 2738 2736 2735 2733 2732 2731 2731 2731 2731 2730 2730 2730 2731 2732 2733 2733 2735 2736 2737 2737 2738 2738 2740 2741 2743 2744 2745 2747 2748 2751 2754 2757 2760
2887 2884 2882 2880 2877 2875 2872 2870 2867 2864 2861 2859 2856 2853 2850 2847 2844 2840 2837 2834 2830 2826 2822 2819 2816 2812 2808 2804 2800 2796 2792 2788 2786 2784 2782 2780 2778 2776 2774 2772 2769 2767 2764 2760 2757 2754 2752 2749 2747 2745 2742 2739 2736 2733 2732 2732 2731 2729 2728 2727 2727 2727 2727 2726 2727 2728 2729 2729 2730 2732 2733 2734 2734 2735 2736 2737 2738 2740 2742 2743 2744 2747 2749 2752 2755 2759
2884 2882 2879 2877 2875 2872 2870 2867 2864 2861 2858 2855 2853 2850 2847 2844 2841 2837 2833 2830 2827 2824 2820 2816 2812 2808 2804 2801 2797 2794 2790 2786 2782 2780 2778 2776 2774 2772 2770 2767 2765 2762 2759 2757 2754 2751 2747 2745 2743 2742 2740 2737 2734 2731 2729 2729 2728 2727 2725 2725 2724 2724 2723 2723 2724 2725 2726 2727 2727 2729 2730 2731 2731 2732 2733 2735 2736 2737 2739 2741 2742 2745 2748 2751 2754 2757
2882 2879 2877 2874 2872 2869 2867 2864 2861 2858 2855 2852 2849 2847 2844 2841 2838 2835 2831 2827 2824 2820 2817 2812 2808 2805 2801 2797 2794 2791 2787 2784 2780 2777 2775 2773 2770 2768 2766 2763 2761 2758 2755 2752 2749 2746 2743 2741 2739 2738 2737 2735 2732 2729 2726 2725 2725 2724 2723 2722 2722 2721 2721 2721 2722 2723 2724 2724 2725 2726 2727 2728 2729 2730 2732 2733 2734 2735 2737 2739 2741 2743 2747 2750 2753 2756
2880 2877 2875 2872 2869 2867 2864 2861 2858 2855 2852 2849 2846 2843 2840 2837 2835 2832 2828 2825 2821 2817 2813 2809 2805 2801 2797 2793 2790 2787 2784 2781 2778 2775 2772 2770 2767 2765 2762 2760 2757 2754 2750 2747 2744 2742 2739 2737 2735 2734 2734 2732 2730 2727 2724 2722 2722 2721 2721 2720 2719 2719 2719 2720 2720 2721 2722 2722 2723 2724 2725 2726 2727 2728 2730 2731 2732 2734 2736 2737 2740 2743 2746 2749 2752 2755
2877 2875 2872 2869 2867 2864 2861 2858 2856 2852 2849 2846 2843 2840 2837 2834 2831 2828 2825 2822 2818 2814 2810 2806 2802 2798 2794 2790 2787 2784 2782 2778 2775 2772 2770 2767 2765 2762 2759 2757 2754 2750 2747 2743 2740 2737 2735 2733 2731 2730 2730 2730 2728 2726 2723 2721 2719 2718 2718 2717 2718 2718 2718 2718 2719 2720 2721 2721 2722 2722 2723 2724 2726 2727 2728 2730 2731 2733 2735 2737 2740 2743 2746 2749 2752 2754